weather.gov     
National Weather Service

Terminal Aerodrome Forecast
NWS Homepage
This page is being discontinued on March 12, 2014.
The same data is available at this site. Please update your bookmarks.
Thank you, and we apologize for the inconvenience.
Please send an email to SR-SRH.Webmaster@noaa.gov with any concerns.


Current Version
Previous Version:    01  02  03  04  05  06  07  08  09  10  11  12  13  14  15  16  17  18  19  20  21  22  23  24  25  
[Printable]
008
FTUS46 KPDT 292300
TAFBDN
TAF
KBDN 292326Z 3000/3024 33012G20KT P6SM BKN200
     FM300400 33008KT P6SM BKN200
     FM300700 VRB05KT P6SM SCT150 SCT250
     FM302000 33008KT P6SM FEW060 SCT150
     FM302200 32012G20KT P6SM SCT060 BKN150=


U.S. Dept. of Commerce
NOAA National Weather Service
1325 East West Highway
Silver Spring, MD 20910
E-mail: w-nws.webmaster@noaa.gov
Page last modified: May 16, 2007
NATIONAL WEATHER SERVICE: for Safety, for Work, for Fun - FOR LIFE